DW8343 Weather Reports


Display with metric or nautical units.
time (UTC)temp
F
wind
direction
speed
MPH
gust
MPH
rain 1hr
in
rain 24hr
in
rain mn
in
humidity
%
barometer
mb
20260507180049 71 242 0.0 3.0 0.00 0.00 0.00 41 1018.9
20260507175545 69 256 3.0 6.0 0.00 0.00 0.00 41 1019.2
20260507175043 70 60 1.0 3.0 0.00 0.00 0.00 42 1019.2
20260507174539 70 18 1.0 4.0 0.00 0.00 0.00 43 1019.2
20260507174037 69 259 3.0 3.0 0.00 0.00 0.00 44 1019.4
20260507173534 68 258 1.0 4.0 0.00 0.00 0.00 43 1019.7
20260507173031 69 280 4.0 6.0 0.00 0.00 0.00 41 1019.7
20260507172527 69 197 4.0 6.0 0.00 0.00 0.00 42 1019.9
20260507172024 67 50 2.0 6.0 0.00 0.00 0.00 45 1019.7
20260507171519 69 354 0.0 1.0 0.00 0.00 0.00 47 1020.0
20260507171017 68 243 1.0 3.0 0.00 0.00 0.00 43 1020.0
20260507170513 67 139 3.0 6.0 0.00 0.00 0.00 42 1020.3
20260507170010 67 206 2.0 6.0 0.00 0.00 0.00 43 1020.2
20260507165506 67 88 0.0 6.0 0.00 0.00 0.00 43 1020.3
20260507165003 67 28 1.0 3.0 0.00 0.00 0.00 45 1020.3
20260507164459 67 196 3.0 4.0 0.00 0.00 0.00 44 1020.5
20260507163956 66 97 2.0 3.0 0.00 0.00 0.00 44 1020.4
20260507163453 67 239 1.0 2.0 0.00 0.00 0.00 43 1020.7
20260507162950 66 283 2.0 6.0 0.00 0.00 0.00 46 1020.9
20260507162445 66 328 2.0 6.0 0.00 0.00 0.00 46 1020.7
20260507161943 65 91 1.0 4.0 0.00 0.00 0.00 45 1020.8
20260507161439 65 206 3.0 7.0 0.00 0.00 0.00 45 1020.8
20260507160936 65 258 1.0 6.0 0.00 0.00 0.00 44 1020.7
20260507160432 64 62 0.0 3.0 0.00 0.00 0.00 46 1020.8
20260507155927 64 247 4.0 4.0 0.00 0.00 0.00 44 1020.9
20260507155424 64 170 3.0 6.0 0.00 0.00 0.00 43 1020.8
20260507154921 63 280 1.0 2.0 0.00 0.00 0.00 46 1020.9
20260507154418 64 176 3.0 7.0 0.00 0.00 0.00 45 1020.9
20260507153915 65 239 1.0 3.0 0.00 0.00 0.00 47 1020.9
20260507153412 64 335 1.0 4.0 0.00 0.00 0.00 46 1021.2
20260507152908 64 6 3.0 4.0 0.00 0.00 0.00 46 1021.0
20260507152404 64 222 2.0 3.0 0.00 0.00 0.00 46 1021.0
20260507151900 64 89 2.0 7.0 0.00 0.00 0.00 46 1021.2
20260507151356 63 306 2.0 6.0 0.00 0.00 0.00 47 1021.1
20260507150854 63 96 1.0 3.0 0.00 0.00 0.00 48 1021.1
20260507150351 62 249 2.0 3.0 0.00 0.00 0.00 51 1021.4
20260507145847 63 200 1.0 1.0 0.00 0.00 0.00 50 1021.3
20260507145343 62 14 0.0 6.0 0.00 0.00 0.00 52 1021.3
20260507144840 62 0 2.0 4.0 0.00 0.00 0.00 50 1021.5
20260507144337 61 239 3.0 4.0 0.00 0.00 0.00 52 1021.7
20260507143834 60 239 2.0 3.0 0.00 0.00 0.00 54 1021.6
20260507143331 60 340 1.0 2.0 0.00 0.00 0.00 54 1021.5
20260507142827 60 272 1.0 3.0 0.00 0.00 0.00 56 1021.8
20260507142324 59 250 0.0 3.0 0.00 0.00 0.00 60 1021.7
20260507141821 60 122 2.0 2.0 0.00 0.00 0.00 60 1021.6
20260507141317 59 261 0.0 1.0 0.00 0.00 0.00 60 1021.7
20260507140814 58 55 0.0 0.0 0.00 0.00 0.00 64 1021.8
20260507140311 58 216 0.0 1.0 0.00 0.00 0.00 64 1022.0
20260507135809 56 276 0.0 1.0 0.00 0.00 0.00 67 1022.1
20260507135306 56 192 0.0 2.0 0.00 0.00 0.00 67 1022.2
20260507134802 56 165 0.0 2.0 0.00 0.00 0.00 69 1022.0
20260507134258 57 186 0.0 1.0 0.00 0.00 0.00 67 1021.9
20260507133754 57 347 0.0 1.0 0.00 0.00 0.00 67 1021.9
20260507133250 56 347 0.0 0.0 0.00 0.00 0.00 69 1021.8
20260507132749 55 347 0.0 0.0 0.00 0.00 0.00 71 1022.1
20260507132245 54 347 0.0 0.0 0.00 0.00 0.00 73 1022.0
20260507131742 52 166 0.0 1.0 0.00 0.00 0.00 78 1021.9
20260507131239 50 339 0.0 0.0 0.00 0.00 0.00 83 1022.0
20260507130735 49 335 0.0 0.0 0.00 0.00 0.00 84 1021.9
20260507130233 48 335 0.0 0.0 0.00 0.00 0.00 86 1021.8
20260507125732 48 335 0.0 0.0 0.00 0.00 0.00 88 1021.8
20260507125229 47 335 0.0 0.0 0.00 0.00 0.00 90 1021.8
20260507124726 46 335 0.0 0.0 0.00 0.00 0.00 92 1021.6
20260507124222 46 335 0.0 0.0 0.00 0.00 0.00 93 1021.6
20260507123721 45 335 0.0 0.0 0.00 0.00 0.00 93 1021.6
20260507123218 45 335 0.0 0.0 0.00 0.00 0.00 94 1021.7
20260507122713 44 335 0.0 0.0 0.00 0.00 0.00 94 1021.4
20260507122209 44 335 0.0 0.0 0.00 0.00 0.00 94 1021.6
20260507121705 43 335 0.0 0.0 0.00 0.00 0.00 94 1021.5
20260507121201 43 335 0.0 0.0 0.00 0.00 0.00 94 1021.3
20260507120657 43 335 0.0 0.0 0.00 0.00 0.00 94 1021.1
20260507120154 43 335 0.0 0.0 0.00 0.00 0.00 93 1021.0
20260507115651 43 335 0.0 0.0 0.00 0.00 0.00 93 1020.9
20260507115146 43 335 0.0 0.0 0.00 0.00 0.00 93 1021.2
20260507114643 43 335 0.0 0.0 0.00 0.00 0.00 93 1021.1
20260507114140 43 335 0.0 0.0 0.00 0.00 0.00 93 1021.1
20260507113637 43 335 0.0 0.0 0.00 0.00 0.00 93 1021.2
20260507113134 43 335 0.0 0.0 0.00 0.00 0.00 93 1021.0
20260507112632 43 335 0.0 0.0 0.00 0.00 0.00 93 1021.1
20260507112128 43 335 0.0 0.0 0.00 0.00 0.00 93 1020.9
20260507111626 43 335 0.0 0.0 0.00 0.00 0.00 93 1021.2
20260507111122 43 335 0.0 0.0 0.00 0.00 0.00 92 1021.1
20260507110618 43 335 0.0 0.0 0.00 0.00 0.00 92 1021.1
20260507110115 43 335 0.0 0.0 0.00 0.00 0.00 92 1021.0
20260507105612 43 335 0.0 0.0 0.00 0.00 0.00 92 1021.2
20260507105108 43 335 0.0 0.0 0.00 0.00 0.00 92 1021.2
20260507104606 43 335 0.0 0.0 0.00 0.00 0.00 92 1021.1
20260507104102 44 335 0.0 0.0 0.00 0.00 0.00 92 1021.2
20260507103558 43 335 0.0 0.0 0.00 0.00 0.00 92 1021.0
20260507103055 43 335 0.0 0.0 0.00 0.00 0.00 92 1021.1
20260507102551 43 335 0.0 0.0 0.00 0.00 0.00 92 1021.0
20260507102047 44 335 0.0 0.0 0.00 0.00 0.00 91 1021.0
20260507101543 43 335 0.0 0.0 0.00 0.00 0.00 91 1021.2
20260507101039 43 335 0.0 0.0 0.00 0.00 0.00 91 1021.1
20260507100537 44 335 0.0 0.0 0.00 0.00 0.00 91 1020.9
20260507100035 44 335 0.0 0.0 0.00 0.00 0.00 91 1020.6
20260507095533 44 335 0.0 0.0 0.00 0.00 0.00 91 1020.8
20260507095029 44 335 0.0 0.0 0.00 0.00 0.00 91 1020.7
20260507094525 44 335 0.0 0.0 0.00 0.00 0.00 91 1020.8
20260507094022 44 335 0.0 0.0 0.00 0.00 0.00 91 1020.8
20260507093520 44 335 0.0 0.0 0.00 0.00 0.00 91 1021.0
20260507093018 44 335 0.0 0.0 0.00 0.00 0.00 91 1021.0
20260507092514 44 335 0.0 0.0 0.00 0.00 0.00 92 1020.9
20260507092011 44 335 0.0 0.0 0.00 0.00 0.00 92 1020.7
20260507091508 43 335 0.0 0.0 0.00 0.00 0.00 91 1021.1
20260507091004 43 335 0.0 0.0 0.00 0.00 0.00 91 1020.8
20260507090500 44 335 0.0 0.0 0.00 0.00 0.00 91 1020.9
20260507085956 43 335 0.0 0.0 0.00 0.00 0.00 91 1020.6
20260507085454 44 335 0.0 0.0 0.00 0.00 0.00 90 1020.4
20260507084950 44 335 0.0 0.0 0.00 0.00 0.00 90 1020.6
20260507084447 44 335 0.0 0.0 0.00 0.00 0.00 90 1020.7
20260507083944 44 335 0.0 0.0 0.00 0.00 0.00 89 1021.0
20260507083441 44 335 0.0 0.0 0.00 0.00 0.00 89 1020.5
20260507082937 44 335 0.0 0.0 0.00 0.00 0.00 89 1020.5
20260507082433 45 335 0.0 0.0 0.00 0.00 0.00 88 1020.7
20260507081930 44 335 0.0 0.0 0.00 0.00 0.00 88 1021.2
20260507081426 44 335 0.0 0.0 0.00 0.00 0.00 88 1021.0
20260507080923 45 335 0.0 0.0 0.00 0.00 0.00 88 1021.0
20260507080419 45 335 0.0 0.0 0.00 0.00 0.00 88 1020.9
20260507075920 45 335 0.0 0.0 0.00 0.00 0.00 87 1020.7
20260507075416 45 335 0.0 0.0 0.00 0.00 0.00 87 1020.8
20260507074913 46 335 0.0 0.0 0.00 0.00 0.00 87 1020.7
20260507074410 46 335 0.0 0.0 0.00 0.00 0.00 87 1020.7
20260507073908 45 335 0.0 0.0 0.00 0.00 0.00 87 1021.0
20260507073404 45 335 0.0 0.0 0.00 0.00 0.00 87 1021.2
20260507072901 45 335 0.0 0.0 0.00 0.00 0.00 87 1021.0
20260507072358 45 335 0.0 0.0 0.00 0.00 0.00 87 1020.9
20260507071856 45 335 0.0 0.0 0.00 0.00 0.00 86 1020.9
20260507071353 45 335 0.0 0.0 0.00 0.00 0.00 86 1021.0
20260507070848 45 335 0.0 0.0 0.00 0.00 0.00 86 1020.9
20260507070346 45 335 0.0 0.0 0.00 0.00 0.00 86 1020.8
20260507065843 45 335 0.0 0.0 0.00 0.00 0.00 85 1020.8
20260507065340 45 335 0.0 0.0 0.00 0.00 0.00 85 1020.7
20260507064837 46 335 0.0 0.0 0.00 0.00 0.00 84 1020.6
20260507064335 46 335 0.0 0.0 0.00 0.00 0.00 82 1020.5
20260507063833 46 335 0.0 0.0 0.00 0.00 0.00 82 1020.9
20260507063329 46 335 0.0 0.0 0.00 0.00 0.00 82 1020.9
20260507062826 47 335 0.0 0.0 0.00 0.00 0.00 81 1020.9
20260507062323 47 335 0.0 0.0 0.00 0.00 0.00 80 1021.0
20260507061821 47 336 0.0 1.0 0.00 0.00 0.00 80 1020.8
20260507061319 47 295 0.0 0.0 0.00 0.00 0.00 80 1021.4
20260507060817 47 295 0.0 0.0 0.00 0.00 0.00 78 1021.4
20260507060313 48 295 0.0 0.0 0.00 0.00 0.00 78 1021.5
20260507055810 48 295 0.0 0.0 0.00 0.00 0.00 77 1021.6
20260507055306 49 295 0.0 0.0 0.00 0.00 0.00 75 1021.6
20260507054802 49 295 0.0 0.0 0.00 0.00 0.00 75 1021.6
20260507054258 49 295 0.0 0.0 0.00 0.00 0.00 73 1021.6
20260507053756 50 295 0.0 0.0 0.00 0.00 0.00 72 1021.5
20260507053253 50 308 0.0 0.0 0.00 0.00 0.00 71 1021.5
20260507052752 50 308 0.0 0.0 0.00 0.00 0.00 70 1021.5
20260507052248 50 308 0.0 0.0 0.00 0.00 0.00 70 1021.5
20260507051746 50 308 0.0 0.0 0.00 0.00 0.00 71 1021.3
20260507051243 50 308 0.0 0.0 0.00 0.00 0.00 70 1021.1
20260507050739 50 308 0.0 0.0 0.00 0.00 0.00 70 1021.2
20260507050237 50 308 0.0 0.0 0.00 0.00 0.00 71 1021.2
20260507045733 50 308 0.0 0.0 0.00 0.00 0.00 71 1021.3
20260507045229 50 308 0.0 0.0 0.00 0.00 0.00 70 1021.2
20260507044727 51 308 0.0 0.0 0.00 0.00 0.00 68 1021.2
20260507044223 51 308 0.0 0.0 0.00 0.00 0.00 67 1021.2
20260507043720 52 309 0.0 0.0 0.00 0.00 0.00 66 1021.0
20260507043216 52 309 0.0 0.0 0.00 0.00 0.00 65 1020.9
20260507042713 53 306 0.0 0.0 0.00 0.00 0.00 64 1020.8
20260507042208 53 293 0.0 0.0 0.00 0.00 0.00 63 1020.5
20260507041706 53 41 0.0 1.0 0.00 0.00 0.00 62 1020.1
20260507041202 53 18 1.0 1.0 0.00 0.00 0.00 62 1020.4
20260507040659 53 44 0.0 4.0 0.00 0.00 0.00 62 1020.3
20260507040155 53 61 0.0 1.0 0.00 0.00 0.00 63 1020.0
20260507035651 53 61 0.0 1.0 0.00 0.00 0.00 64 1019.8
20260507035147 53 23 0.0 1.0 0.00 0.00 0.00 63 1020.2
20260507034644 53 57 0.0 0.0 0.00 0.00 0.00 65 1020.2
20260507034142 53 57 0.0 0.0 0.00 0.00 0.00 66 1020.5
20260507033640 53 57 0.0 0.0 0.00 0.00 0.00 65 1020.5
20260507033137 53 57 0.0 1.0 0.00 0.00 0.00 64 1020.2
20260507032635 53 57 1.0 2.0 0.00 0.00 0.00 65 1020.3
20260507032130 53 57 0.0 0.0 0.00 0.00 0.00 65 1020.3
20260507031627 53 57 0.0 0.0 0.00 0.00 0.00 66 1020.3
20260507031124 53 57 0.0 0.0 0.00 0.00 0.00 64 1020.0
20260507030620 53 57 0.0 0.0 0.00 0.00 0.00 65 1019.9
20260507030118 54 57 0.0 0.0 0.00 0.00 0.00 65 1020.1
20260507025615 54 57 0.0 0.0 0.00 0.00 0.00 64 1019.9
20260507025112 54 57 0.0 0.0 0.00 0.00 0.00 64 1019.9
20260507024610 54 57 0.0 0.0 0.00 0.00 0.00 63 1019.9
20260507024102 55 57 0.0 0.0 0.00 0.00 0.00 62 1019.7
20260507023557 55 57 0.0 0.0 0.00 0.00 0.00 62 1019.6
20260507023055 55 57 0.0 0.0 0.00 0.00 0.00 61 1019.5
20260507022552 56 57 0.0 0.0 0.00 0.00 0.00 60 1019.4
20260507022047 56 57 0.0 0.0 0.00 0.00 0.00 58 1019.4
20260507021543 57 57 1.0 2.0 0.00 0.00 0.00 57 1019.2
20260507021040 57 96 0.0 0.0 0.00 0.00 0.00 57 1019.2
20260507020538 57 40 0.0 0.0 0.00 0.00 0.00 56 1019.3
20260507020033 58 40 0.0 0.0 0.00 0.00 0.00 55 1018.9
20260507015532 58 320 0.0 0.0 0.00 0.00 0.00 55 1018.8
20260507015029 58 10 0.0 0.0 0.00 0.00 0.00 54 1019.0
20260507014525 59 344 0.0 0.0 0.00 0.00 0.00 54 1018.9
20260507014021 59 2 0.0 1.0 0.00 0.00 0.00 52 1018.8
20260507013518 60 105 1.0 1.0 0.00 0.00 0.00 52 1018.7
20260507013015 60 105 0.0 1.0 0.00 0.00 0.00 51 1018.7
20260507012512 60 37 1.0 2.0 0.00 0.00 0.00 51 1018.6
20260507012008 60 14 1.0 2.0 0.00 0.00 0.00 51 1018.8
20260507011506 61 29 0.0 2.0 0.00 0.00 0.00 50 1018.7
20260507011001 61 350 2.0 3.0 0.00 0.00 0.00 50 1018.8
20260507010456 61 352 1.0 2.0 0.00 0.00 0.00 50 1018.6
20260507005948 61 14 1.0 1.0 0.00 0.00 0.00 50 1018.5
20260507005445 62 55 1.0 2.0 0.00 0.00 0.00 50 1018.6
20260507004941 62 7 0.0 1.0 0.00 0.00 0.00 49 1018.5
20260507004438 62 0 0.0 2.0 0.00 0.00 0.00 49 1018.7
20260507003936 62 68 1.0 2.0 0.00 0.00 0.00 49 1018.6
20260507003431 62 13 0.0 0.0 0.00 0.00 0.00 50 1018.4
20260507002926 62 351 0.0 1.0 0.00 0.00 0.00 48 1018.5
20260507002422 63 2 0.0 1.0 0.00 0.00 0.00 50 1018.4
20260507001920 63 277 0.0 1.0 0.00 0.00 0.00 50 1018.4
20260507001416 63 10 0.0 2.0 0.00 0.00 0.00 49 1018.3
20260507000913 63 13 0.0 2.0 0.00 0.00 0.00 49 1018.3
20260507000408 64 242 1.0 1.0 0.00 0.00 0.00 49 1018.4
20260506235904 64 334 1.0 1.0 0.00 0.00 0.00 48 1018.3
20260506235402 64 230 0.0 1.0 0.00 0.00 0.00 48 1018.3
20260506234857 65 11 1.0 1.0 0.00 0.00 0.00 47 1018.2
20260506234355 64 25 0.0 1.0 0.00 0.00 0.00 48 1018.2
20260506233853 64 7 1.0 4.0 0.00 0.00 0.00 48 1018.0
20260506233349 64 62 1.0 2.0 0.00 0.00 0.00 48 1018.0
20260506232847 64 330 1.0 2.0 0.00 0.00 0.00 48 1017.9
20260506232342 65 57 0.0 2.0 0.00 0.00 0.00 47 1017.7
20260506231839 64 354 1.0 1.0 0.00 0.00 0.00 47 1017.9
20260506231337 65 351 0.0 3.0 0.00 0.00 0.00 47 1017.9
20260506230834 64 12 2.0 7.0 0.00 0.00 0.00 48 1017.7
20260506230330 65 22 2.0 3.0 0.00 0.00 0.00 48 1017.6
20260506225827 65 282 1.0 2.0 0.00 0.00 0.00 45 1017.7
20260506225324 65 27 1.0 1.0 0.00 0.00 0.00 47 1017.7
20260506224820 65 23 0.0 1.0 0.00 0.00 0.00 48 1017.7
20260506224317 64 112 2.0 2.0 0.00 0.00 0.00 48 1017.6
20260506223814 65 293 0.0 1.0 0.00 0.00 0.00 47 1017.6
20260506223309 65 84 1.0 3.0 0.00 0.00 0.00 47 1017.3
20260506222806 65 31 1.0 6.0 0.00 0.00 0.00 47 1017.1
20260506222305 65 280 4.0 4.0 0.00 0.00 0.00 46 1017.4
20260506221800 65 58 1.0 3.0 0.00 0.00 0.00 47 1017.1
20260506221257 66 18 2.0 3.0 0.00 0.00 0.00 47 1017.0
20260506220755 67 3 2.0 3.0 0.00 0.00 0.00 45 1017.0
20260506220249 67 355 2.0 3.0 0.00 0.00 0.00 46 1016.9
20260506215746 67 296 1.0 1.0 0.00 0.00 0.00 47 1017.1
20260506215242 66 145 1.0 4.0 0.00 0.00 0.00 47 1017.1
20260506214733 68 23 1.0 6.0 0.00 0.00 0.00 43 1017.2
20260506214230 67 21 0.0 2.0 0.00 0.00 0.00 45 1017.0
20260506213728 67 359 0.0 2.0 0.00 0.00 0.00 46 1017.2
20260506213225 66 20 1.0 3.0 0.00 0.00 0.00 45 1017.2
20260506212722 66 47 0.0 1.0 0.00 0.00 0.00 45 1017.2
20260506212218 66 341 0.0 4.0 0.00 0.00 0.00 46 1017.4
20260506211713 65 129 0.0 3.0 0.00 0.00 0.00 49 1017.5
20260506211210 65 45 0.0 3.0 0.00 0.00 0.00 50 1017.7
20260506210707 67 66 1.0 2.0 0.00 0.00 0.00 46 1017.6
20260506210204 66 28 1.0 4.0 0.00 0.00 0.00 49 1017.5
20260506205702 67 72 1.0 3.0 0.00 0.00 0.00 49 1017.6
20260506205201 66 9 0.0 2.0 0.00 0.00 0.00 48 1017.6
20260506204659 65 308 1.0 2.0 0.00 0.00 0.00 51 1017.6
20260506204156 65 29 1.0 2.0 0.00 0.00 0.00 47 1017.7
20260506203654 64 249 0.0 2.0 0.00 0.00 0.00 51 1017.7
20260506203151 64 150 1.0 3.0 0.00 0.00 0.00 52 1017.9
20260506202649 64 12 1.0 4.0 0.00 0.00 0.00 53 1018.0
20260506202145 65 28 1.0 3.0 0.00 0.00 0.00 52 1017.8
20260506201642 65 36 0.0 1.0 0.00 0.00 0.00 52 1018.1
20260506201138 66 313 0.0 1.0 0.00 0.00 0.00 52 1018.0
20260506200635 64 32 0.0 2.0 0.00 0.00 0.00 52 1018.1
20260506200132 64 321 0.0 1.0 0.00 0.00 0.00 51 1018.1
20260506195628 64 63 1.0 2.0 0.00 0.00 0.00 54 1018.0
20260506195125 64 34 2.0 4.0 0.00 0.00 0.00 52 1018.1
20260506194622 62 120 1.0 2.0 0.00 0.00 0.00 53 1018.2
20260506194119 63 35 1.0 2.0 0.00 0.00 0.00 54 1018.2
20260506193617 63 218 1.0 3.0 0.00 0.00 0.00 53 1018.3
20260506193114 61 43 1.0 2.0 0.00 0.00 0.00 55 1018.2
20260506192610 61 130 2.0 4.0 0.00 0.00 0.00 54 1018.4
20260506192106 61 29 1.0 3.0 0.00 0.00 0.00 55 1018.5
20260506191603 61 27 0.0 3.0 0.00 0.00 0.00 56 1018.3
20260506191059 61 97 2.0 4.0 0.00 0.00 0.00 55 1018.5
20260506190556 62 4 0.0 1.0 0.00 0.00 0.00 54 1018.4
20260506190053 62 75 0.0 2.0 0.00 0.00 0.00 55 1018.7
20260506185550 62 75 2.0 2.0 0.00 0.00 0.00 54 1018.7
20260506185047 61 58 1.0 4.0 0.00 0.00 0.00 55 1018.5
20260506184544 61 52 0.0 6.0 0.00 0.00 0.00 56 1018.5
20260506184042 60 16 3.0 4.0 0.00 0.00 0.00 55 1018.8
20260506183537 60 79 3.0 4.0 0.00 0.00 0.00 55 1018.7
20260506183034 61 15 1.0 3.0 0.00 0.00 0.00 56 1018.7
20260506182532 61 32 2.0 3.0 0.00 0.00 0.00 55 1018.9
20260506182029 61 11 0.0 3.0 0.00 0.00 0.00 56 1018.9
20260506181526 60 6 2.0 6.0 0.00 0.00 0.00 55 1018.8
20260506181023 61 41 3.0 4.0 0.00 0.00 0.00 55 1019.0
20260506180519 61 207 2.0 3.0 0.00 0.00 0.00 55 1019.0